Theta_e
314 314 313 312 312 312 312 311 311 311 311 311 310 310 310 309 305 302 302 302 302 302 302 302 303 305 307 307 306 304 306 308
313 312 312 312 312 312 311 311 310 309 310 310 309 308 304 302 301 301 301 301 302 302 302 302 302 302 302 302 303 307 306 304
312 312 312 311 311 310 309 308 308 308 308 307 304 302 301 301 301 301 301 301 301 302 302 302 303 303 303 302 302 302 302 305
311 311 311 311 310 309 307 302 301 301 301 301 302 301 301 301 301 301 301 301 302 302 302 303 303 303 303 303 302 302 301 301
311 311 310 310 309 308 303 301 301 301 301 301 301 301 301 301 301 301 301 301 301 301 301 301 301 300 300 301 301 301 301 300
311 310 310 309 308 305 301 301 301 301 301 301 301 301 301 301 300 300 300 300 300 300 299 299 299 298 298 297 297 298 298 296
311 309 308 308 306 304 302 301 301 301 300 301 301 301 300 300 299 299 300 299 299 298 298 298 298 297 297 296 295 293 294 293
310 309 309 308 307 305 303 301 301 300 300 301 301 300 300 299 299 299 299 298 298 298 296 297 297 297 296 295 295 294 293 293
310 310 310 308 307 305 303 302 301 300 300 301 300 300 299 298 298 297 297 297 297 296 295 295 295 295 295 295 295 294 293 291
311 311 311 310 309 308 310 307 305 302 301 300 300 299 297 295 294 294 293 293 293 293 292 291 291 291 292 293 294 294 293 292
312 311 309 307 307 308 308 306 304 302 301 300 299 297 294 293 292 291 290 290 290 289 287 287 287 288 288 289 290 290 292 292
312 310 308 307 306 306 305 304 301 301 301 300 299 296 293 292 290 289 289 288 287 287 286 285 286 286 286 286 286 287 288 290
313 311 307 306 305 305 304 303 302 301 300 298 296 295 292 290 288 288 287 287 286 286 285 284 285 285 285 285 285 285 285 286
310 308 307 305 304 304 304 304 305 300 297 296 296 293 290 288 287 287 287 286 285 284 284 284 285 284 284 284 284 284 284 284
312 309 307 304 304 304 302 304 304 300 298 295 294 291 288 287 287 286 286 285 284 284 284 284 284 283 283 282 283 283 283 283
313 309 306 304 303 302 301 302 300 298 295 294 293 289 287 286 286 285 285 284 283 283 283 283 283 283 281 281 282 282 282 282
311 310 307 304 303 302 301 300 299 295 293 293 290 287 286 285 285 284 284 283 283 282 282 282 282 282 281 280 280 281 281 281
311 309 307 305 303 302 301 299 298 293 293 293 288 286 284 284 284 283 283 282 282 281 281 281 282 281 280 280 279 280 280 280
309 307 305 303 302 301 299 299 294 293 294 290 286 285 284 284 283 283 283 282 282 280 280 280 280 280 280 279 278 279 279 279
Wind_Speed
19 16 13 10 9 8 7 8 7 6 4 3 2 4 6 8 9 11 12 13 14 15 16 17 19 20 20 17 16 15 17 19
20 17 14 12 11 9 9 9 9 8 6 3 3 3 2 4 7 9 11 13 14 16 18 19 20 22 23 22 21 20 17 18
24 20 16 12 11 10 8 9 10 10 8 6 4 1 2 5 7 9 12 14 15 16 17 18 19 19 19 21 22 22 19 17
29 23 17 13 10 8 8 10 11 11 10 7 4 2 3 5 7 10 13 16 17 18 18 18 18 18 18 17 16 16 18 14
31 26 19 15 11 9 9 10 9 8 7 5 5 2 2 7 11 13 14 15 16 17 17 17 17 16 15 14 14 14 13 13
34 25 20 15 10 10 10 8 7 6 6 5 3 2 5 7 9 11 13 14 15 16 17 17 17 16 15 13 11 10 11 11
30 24 19 15 12 9 6 6 7 5 4 3 2 2 4 6 7 9 12 13 13 14 16 16 16 16 16 14 14 12 10 9
29 25 18 15 12 9 9 8 7 6 4 2 1 3 5 6 8 10 11 12 13 13 14 14 15 15 15 16 14 14 13 11
27 22 19 16 13 10 8 7 7 5 4 4 4 5 6 7 8 9 10 11 12 11 11 12 12 13 13 14 15 15 13 11
28 26 25 25 21 16 9 9 9 9 7 7 6 6 6 7 7 8 9 10 10 10 11 10 10 9 10 13 14 15 15 13
30 31 31 25 22 16 13 12 11 11 10 9 8 6 6 7 7 7 8 8 9 10 10 9 9 9 10 11 13 14 15 15
36 36 32 29 25 20 15 13 9 8 10 10 8 6 6 6 6 6 8 8 9 9 9 9 8 10 10 11 12 13 14 14
36 36 36 31 27 22 17 12 9 9 11 9 7 5 5 5 5 6 8 8 8 8 8 9 9 9 10 10 12 13 14 14
33 35 35 34 30 24 19 14 10 12 11 9 7 6 6 5 6 7 7 7 7 7 7 7 8 8 9 10 12 13 14 15
33 36 37 37 30 27 24 19 13 11 10 9 7 6 6 6 5 5 5 5 5 6 6 7 6 7 8 9 11 12 13 14
35 36 36 37 33 30 25 21 13 11 10 8 7 7 7 6 5 3 3 3 4 5 7 8 7 8 7 10 10 11 13 14
31 30 35 39 36 31 26 21 12 12 11 8 8 9 8 6 4 2 1 2 3 4 6 7 7 7 7 10 11 12 12 13
27 31 34 37 36 30 26 19 12 14 12 10 10 9 7 5 3 2 1 0 2 4 5 6 8 6 6 8 10 11 11 12
24 29 32 32 30 27 23 17 16 15 11 11 11 10 8 6 5 3 2 0 2 3 3 5 8 10 7 6 8 9 10 10
Wind_Direction
191 187 184 184 182 181 180 173 189 213 221 243 296 327 333 337 343 350 351 344 338 331 325 320 316 312 308 304 302 299 293 285
191 190 191 186 175 180 175 178 185 206 220 226 271 306 354 0 358 355 349 342 337 331 324 319 314 310 312 312 306 295 292 289
190 192 192 180 185 174 170 179 178 190 206 201 184 118 11 4 2 355 348 345 342 337 331 325 319 313 307 304 301 301 300 297
187 189 188 182 182 169 160 160 157 162 162 157 138 82 17 4 354 356 353 349 347 345 342 337 331 324 317 311 301 296 296 295
188 185 178 182 180 167 159 159 159 151 140 146 123 114 3 1 357 354 356 353 354 355 356 352 345 339 329 321 310 301 291 292
184 181 180 173 173 174 170 166 163 152 151 155 111 25 9 358 351 349 355 360 2 5 7 7 4 0 355 348 333 316 307 301
180 174 166 163 173 175 173 184 189 175 174 160 122 35 12 357 354 353 359 4 8 11 13 16 18 18 14 13 11 360 347 322
174 168 168 177 181 187 196 203 211 203 213 226 315 346 352 341 348 352 356 357 4 10 10 17 23 25 23 24 25 20 15 360
172 175 185 186 185 197 213 224 231 235 262 294 310 324 334 337 344 349 347 348 355 360 360 6 15 19 20 21 26 25 24 17
182 193 207 202 193 190 220 246 254 258 274 287 296 315 322 328 336 346 338 347 346 353 352 354 355 8 15 18 20 23 24 25
200 204 203 198 200 204 211 220 224 229 241 254 274 288 312 326 334 339 341 353 349 352 348 349 345 1 9 14 13 17 18 23
204 208 204 203 202 206 206 218 226 234 245 254 265 282 301 324 330 339 339 343 345 352 346 344 351 359 13 14 11 15 13 16
214 210 206 202 204 201 210 216 231 249 252 248 257 278 291 307 319 340 340 340 344 349 350 344 352 2 9 18 17 15 13 11
213 209 207 204 202 206 207 203 228 229 227 227 247 268 281 298 318 331 338 340 347 353 353 343 355 6 10 15 18 14 13 9
215 212 210 207 205 205 206 203 222 229 232 237 260 268 273 290 307 322 335 339 344 350 350 351 6 21 16 20 20 17 15 13
221 216 210 209 205 205 206 209 211 221 223 241 257 255 264 273 286 312 333 343 353 358 5 358 360 23 30 29 23 20 23 23
219 219 215 211 208 204 207 209 211 220 228 243 246 247 247 246 263 286 345 359 0 7 10 11 10 20 29 29 24 18 17 20
220 220 217 214 207 209 208 208 212 218 228 235 237 236 231 226 222 222 236 124 29 13 12 13 16 16 22 20 21 15 13 18
228 222 219 215 208 207 204 208 208 217 229 233 228 223 217 208 202 195 194 101 27 18 17 20 18 20 14 21 18 11 16 19